Back to catalog

STARLINK-3512

AliveCommunicationsVLEO
NORAD 51743·PAYLOAD·🇺🇸 United States

Launched Feb 21, 2022 from Cape Canaveral Space Force Station

Loading…

Next Passes (next 24 hours)

TLE

FreshSource: CelesTrak SupGP

Epoch: Sep 14, 2026, 13:18 UTC

1 51743C 22016AF  26257.55465278 -.00099191  00000+0 -29298-2 0  2574
2 51743  53.1603 167.8683 0001093  90.4451 269.8200 15.34448755    19

Track STARLINK-3512 in real time with AllMySat

Download on the App Store